When you browse on this site, cookies collect data to enhance your experience and personalize the content and advertising you see.
Visit our Privacy Policy to learn more. By continuing to use the site, you agree to this use of cookies and data.

Hourly Weather Kalat

Today, 12 August, Wednesday

Time Temperature Precipitation Wind Pressure Humidity
00:00 +9°C° 0 mm 2 mps 479 mmHg 66%
01:00 +9°C° 0 mm 1 mps 478 mmHg 68%
02:00 +9°C° 0 mm 1 mps 478 mmHg 71%
03:00 +8°C° 0 mm 1 mps 477 mmHg 72%
04:00 +8°C° 0 mm 1 mps 477 mmHg 74%
05:00 +7°C° 0 mm 1 mps 476 mmHg 76%
06:00 +8°C° 0 mm 1 mps 477 mmHg 70%
07:00 +8°C° 0 mm 1 mps 477 mmHg 64%
08:00 +9°C° 0 mm 1 mps 478 mmHg 58%
09:00 +9°C° 0 mm 2 mps 479 mmHg 50%
10:00 +12°C° 0 mm 2 mps 480 mmHg 42%
11:00 +14°C° 0 mm 2 mps 481 mmHg 35%
12:00 +15°C° 0 mm 2 mps 481 mmHg 33%
13:00 +16°C° 0 mm 3 mps 482 mmHg 30%
14:00 +17°C° 0 mm 3 mps 483 mmHg 27%
15:00 +17°C° 0 mm 3 mps 482 mmHg 29%
16:00 +17°C° 0 mm 4 mps 482 mmHg 30%
17:00 +17°C° 0 mm 4 mps 482 mmHg 31%
18:00 +14°C° 0 mm 4 mps 481 mmHg 36%
19:00 +13°C° 0 mm 3 mps 481 mmHg 41%
20:00 +12°C° 0 mm 3 mps 480 mmHg 46%
21:00 +11°C° 0 mm 3 mps 480 mmHg 49%
22:00 +10°C° 0 mm 2 mps 479 mmHg 52%
23:00 +9°C° 0 mm 2 mps 479 mmHg 55%

Tomorrow, 13 August, Thursday

Time Temperature Precipitation Wind Pressure Humidity
00:00 +8°C° 0 mm 2 mps 479 mmHg 57%
01:00 +9°C° 0 mm 1 mps 478 mmHg 59%
02:00 +8°C° 0 mm 1 mps 478 mmHg 61%
03:00 +8°C° 0 mm 1 mps 477 mmHg 62%
04:00 +7°C° 0 mm 1 mps 477 mmHg 64%
05:00 +7°C° 0 mm 1 mps 476 mmHg 65%
06:00 +7°C° 0 mm 1 mps 477 mmHg 60%
07:00 +8°C° 0 mm 1 mps 477 mmHg 55%
08:00 +7°C° 0 mm 2 mps 478 mmHg 50%
09:00 +9°C° 0 mm 2 mps 479 mmHg 43%
10:00 +10°C° 0 mm 2 mps 480 mmHg 35%
11:00 +13°C° 0 mm 2 mps 480 mmHg 27%
12:00 +14°C° 0 mm 2 mps 481 mmHg 26%
13:00 +14°C° 0 mm 3 mps 481 mmHg 24%
14:00 +16°C° 0 mm 3 mps 482 mmHg 22%
15:00 +16°C° 0 mm 3 mps 481 mmHg 23%
16:00 +15°C° 0 mm 4 mps 481 mmHg 24%
17:00 +15°C° 0 mm 4 mps 481 mmHg 25%
18:00 +14°C° 0 mm 4 mps 480 mmHg 29%
19:00 +12°C° 0 mm 4 mps 480 mmHg 32%
20:00 +11°C° 0 mm 4 mps 479 mmHg 36%
21:00 +10°C° 0 mm 3 mps 479 mmHg 38%
22:00 +9°C° 0 mm 3 mps 478 mmHg 40%
23:00 +9°C° 0 mm 2 mps 478 mmHg 42%

Day after tomorrow, 14 August, Friday

Time Temperature Precipitation Wind Pressure Humidity
00:00 +8°C° 0 mm 2 mps 478 mmHg 44%
01:00 +8°C° 0 mm 1 mps 477 mmHg 45%
02:00 +8°C° 0 mm 1 mps 477 mmHg 47%
03:00 +7°C° 0 mm 1 mps 476 mmHg 48%
04:00 +7°C° 0 mm 1 mps 476 mmHg 49%
05:00 +6°C° 0 mm 1 mps 475 mmHg 51%
06:00 +7°C° 0 mm 1 mps 476 mmHg 46%
07:00 +8°C° 0 mm 1 mps 476 mmHg 42%
08:00 +8°C° 0 mm 1 mps 477 mmHg 38%
09:00 +9°C° 0 mm 2 mps 478 mmHg 33%
10:00 +12°C° 0 mm 2 mps 479 mmHg 29%
11:00 +13°C° 0 mm 2 mps 480 mmHg 24%
12:00 +15°C° 0 mm 2 mps 480 mmHg 23%
13:00 +16°C° 0 mm 3 mps 481 mmHg 22%
14:00 +17°C° 0 mm 3 mps 481 mmHg 21%
15:00 +17°C° 0 mm 3 mps 481 mmHg 22%
16:00 +17°C° 0 mm 4 mps 481 mmHg 23%
17:00 +17°C° 0 mm 4 mps 481 mmHg 24%
18:00 +14°C° 0 mm 4 mps 480 mmHg 28%
19:00 +13°C° 0 mm 4 mps 480 mmHg 31%
20:00 +12°C° 0 mm 3 mps 479 mmHg 34%
21:00 +11°C° 0 mm 3 mps 479 mmHg 37%
22:00 +10°C° 0 mm 3 mps 478 mmHg 40%
23:00 +9°C° 0 mm 2 mps 478 mmHg 43%

15 August, Saturday

Time Temperature Precipitation Wind Pressure Humidity
00:00 +9°C° 0 mm 2 mps 477 mmHg 45%
01:00 +8°C° 0 mm 2 mps 477 mmHg 47%
02:00 +8°C° 0 mm 1 mps 476 mmHg 50%
03:00 +8°C° 0 mm 1 mps 476 mmHg 52%
04:00 +7°C° 0 mm 1 mps 475 mmHg 54%
05:00 +7°C° 0 mm 1 mps 475 mmHg 56%
06:00 +7°C° 0 mm 1 mps 475 mmHg 51%
07:00 +8°C° 0 mm 1 mps 476 mmHg 46%
08:00 +9°C° 0 mm 1 mps 477 mmHg 41%
09:00 +10°C° 0 mm 2 mps 478 mmHg 35%
10:00 +12°C° 0 mm 2 mps 479 mmHg 30%
11:00 +14°C° 0 mm 2 mps 480 mmHg 24%
12:00 +15°C° 0 mm 2 mps 480 mmHg 22%
13:00 +17°C° 0 mm 3 mps 481 mmHg 21%
14:00 +18°C° 0 mm 3 mps 481 mmHg 19%
15:00 +18°C° 0 mm 3 mps 481 mmHg 20%
16:00 +18°C° 0 mm 3 mps 481 mmHg 20%
17:00 +18°C° 0 mm 4 mps 481 mmHg 21%
18:00 +16°C° 0 mm 3 mps 481 mmHg 24%
19:00 +14°C° 0 mm 3 mps 480 mmHg 28%
20:00 +13°C° 0 mm 3 mps 480 mmHg 31%
21:00 +13°C° 0 mm 2 mps 479 mmHg 33%
22:00 +12°C° 0 mm 2 mps 479 mmHg 35%
23:00 +12°C° 0 mm 2 mps 479 mmHg 38%

16 August, Sunday

Time Temperature Precipitation Wind Pressure Humidity
00:00 +11°C° 0 mm 1 mps 478 mmHg 39%
01:00 +10°C° 0 mm 1 mps 478 mmHg 41%
02:00 +10°C° 0 mm 1 mps 477 mmHg 42%
03:00 +9°C° 0 mm 1 mps 477 mmHg 42%
04:00 +9°C° 0 mm 1 mps 477 mmHg 42%
05:00 +8°C° 0 mm 1 mps 476 mmHg 42%
06:00 +10°C° 0 mm 1 mps 477 mmHg 36%
07:00 +11°C° 0 mm 1 mps 478 mmHg 30%
08:00 +12°C° 0 mm 1 mps 479 mmHg 24%
09:00 +14°C° 0 mm 2 mps 480 mmHg 21%
10:00 +15°C° 0 mm 2 mps 481 mmHg 18%
11:00 +17°C° 0 mm 2 mps 482 mmHg 16%
12:00 +18°C° 0 mm 2 mps 482 mmHg 15%
13:00 +19°C° 0 mm 3 mps 483 mmHg 15%
14:00 +20°C° 0 mm 3 mps 483 mmHg 15%
15:00 +20°C° 0 mm 3 mps 483 mmHg 16%
16:00 +20°C° 0 mm 4 mps 483 mmHg 17%
17:00 +19°C° 0 mm 4 mps 483 mmHg 18%
18:00 +18°C° 0 mm 4 mps 482 mmHg 21%
19:00 +17°C° 0 mm 4 mps 481 mmHg 24%
20:00 +14°C° 0 mm 3 mps 481 mmHg 27%
21:00 +14°C° 0 mm 3 mps 480 mmHg 29%
22:00 +13°C° 0 mm 3 mps 480 mmHg 31%
23:00 +13°C° 0 mm 2 mps 480 mmHg 33%

17 August, Monday

Time Temperature Precipitation Wind Pressure Humidity
00:00 +12°C° 0 mm 2 mps 479 mmHg 34%
01:00 +12°C° 0 mm 2 mps 479 mmHg 36%
02:00 +11°C° 0 mm 1 mps 478 mmHg 37%
03:00 +10°C° 0 mm 1 mps 478 mmHg 38%
04:00 +10°C° 0 mm 1 mps 477 mmHg 39%
05:00 +9°C° 0 mm 1 mps 477 mmHg 39%
06:00 +10°C° 0 mm 1 mps 478 mmHg 35%
07:00 +12°C° 0 mm 1 mps 478 mmHg 31%
08:00 +13°C° 0 mm 2 mps 479 mmHg 27%
09:00 +14°C° 0 mm 2 mps 480 mmHg 25%
10:00 +16°C° 0 mm 2 mps 481 mmHg 23%
11:00 +17°C° 0 mm 2 mps 482 mmHg 21%
12:00 +18°C° 0 mm 3 mps 482 mmHg 20%
13:00 +19°C° 0 mm 3 mps 482 mmHg 18%
14:00 +20°C° 0 mm 3 mps 483 mmHg 17%
15:00 +20°C° 0 mm 3 mps 482 mmHg 18%
16:00 +19°C° 0 mm 4 mps 482 mmHg 19%
17:00 +19°C° 0 mm 4 mps 482 mmHg 20%
18:00 +18°C° 0 mm 4 mps 482 mmHg 23%
19:00 +17°C° 0 mm 4 mps 481 mmHg 26%
20:00 +15°C° 0 mm 4 mps 481 mmHg 29%
21:00 +14°C° 0 mm 3 mps 480 mmHg 31%
22:00 +13°C° 0 mm 3 mps 480 mmHg 34%
23:00 +12°C° 0 mm 3 mps 480 mmHg 37%
Show more